Location: Unspecified
(0.0000°N, 0.0000°E)
Time: 09:13:49
(UTC+00:00)

Falcon 9 debris - Pass Details

Date: 05 June 2020
Orbit: 427 x 434 km, 53.0° (Epoch: 07 July)

Event Time Altitude Azimuth Distance (km) Brightness Sun altitude
Rises 18:52:59 0° 230° (SW) 2,385 ? -12.5°
Reaches altitude 10° 18:55:14 10° 241° (WSW) 1,516 ? -13.0°
Maximum altitude 18:58:17 30° 304° (NW) 784 ? -13.7°
Drops below altitude 10° 19:01:18 10° 8° (N) 1,507 ? -14.4°
Sets 19:03:33 0° 19° (NNE) 2,368 ? -14.9°
